TimeEST,TemperatureF,Dew PointF,Humidity,Sea Level PressureIn,VisibilityMPH,Wind Direction,Wind SpeedMPH,Gust SpeedMPH,PrecipitationIn,Events,Conditions,WindDirDegrees,DateUTC
12:54 AM,33.1,26.1,75,30.09,8.0,North,10.4,-,0.00,Snow,Light Snow,360,2013-03-08 05:54:00
1:27 AM,30.2,26.6,86,30.08,3.0,NNW,11.5,18.4,0.00,Snow,Light Snow,340,2013-03-08 06:27:00
1:54 AM,30.0,27.0,88,30.09,4.0,NNW,10.4,-,0.00,Snow,Light Snow,330,2013-03-08 06:54:00
2:31 AM,30.2,26.6,86,30.05,2.5,NW,10.4,20.7,0.00,Snow,Light Snow,320,2013-03-08 07:31:00
2:54 AM,30.0,27.0,88,30.06,4.0,NW,13.8,19.6,0.00,Snow,Light Snow,320,2013-03-08 07:54:00
3:13 AM,28.4,26.6,93,30.04,2.5,NW,9.2,18.4,0.00,Snow,Light Snow,320,2013-03-08 08:13:00
3:27 AM,28.4,26.6,93,30.04,3.0,NW,10.4,18.4,0.00,Snow,Light Snow,320,2013-03-08 08:27:00
3:39 AM,28.4,26.6,93,30.04,2.0,NW,9.2,17.3,0.00,Snow,Light Snow,320,2013-03-08 08:39:00
3:54 AM,28.9,27.0,92,30.06,2.5,NW,11.5,19.6,0.00,Snow,Light Snow,320,2013-03-08 08:54:00
4:09 AM,28.4,26.6,93,30.04,3.0,NW,11.5,19.6,0.00,Snow,Light Snow,320,2013-03-08 09:09:00
4:42 AM,28.4,26.6,93,30.03,3.0,NW,11.5,21.9,0.00,Snow,Light Snow,320,2013-03-08 09:42:00
4:50 AM,28.4,26.6,93,30.03,3.0,NW,12.7,21.9,0.00,Snow,Light Snow,320,2013-03-08 09:50:00
4:54 AM,28.9,26.1,89,30.05,3.0,NW,12.7,21.9,0.00,Snow,Light Snow,320,2013-03-08 09:54:00
5:02 AM,28.4,26.6,93,30.03,2.5,NW,11.5,20.7,0.00,Snow,Light Snow,320,2013-03-08 10:02:00
5:09 AM,28.4,26.6,93,30.03,4.0,NW,11.5,18.4,0.00,Snow,Light Snow,320,2013-03-08 10:09:00
5:30 AM,28.4,26.6,93,30.03,2.0,NNW,12.7,18.4,0.00,Snow,Light Snow,330,2013-03-08 10:30:00
5:39 AM,28.4,26.6,93,30.03,1.8,NNW,12.7,20.7,0.00,Snow,Light Snow,330,2013-03-08 10:39:00
5:54 AM,28.9,26.1,89,30.05,1.8,NNW,8.1,21.9,0.00,Snow,Light Snow,330,2013-03-08 10:54:00
5:59 AM,28.4,26.6,93,30.03,2.0,NW,10.4,23.0,0.00,Snow,Light Snow,320,2013-03-08 10:59:00
6:12 AM,28.4,26.6,93,30.03,3.0,NNW,11.5,19.6,0.00,Snow,Light Snow,330,2013-03-08 11:12:00
6:30 AM,28.4,26.6,93,30.04,1.8,NNW,10.4,24.2,0.00,Snow,Light Snow,330,2013-03-08 11:30:00
6:51 AM,28.4,26.6,93,30.04,1.0,NNW,13.8,19.6,0.00,Snow,Light Snow,330,2013-03-08 11:51:00
6:54 AM,28.0,26.1,92,30.07,1.0,NNW,8.1,19.6,0.00,Snow,Light Snow,330,2013-03-08 11:54:00
7:01 AM,28.4,26.6,93,30.04,0.8,NW,10.4,-,0.00,Snow,Light Snow,320,2013-03-08 12:01:00
7:10 AM,28.4,26.6,93,30.04,1.5,NW,11.5,18.4,0.00,Snow,Light Snow,320,2013-03-08 12:10:00
7:18 AM,28.4,26.6,93,30.04,2.0,NW,10.4,19.6,0.00,Snow,Light Snow,320,2013-03-08 12:18:00
7:44 AM,28.4,26.6,93,30.05,3.0,NNW,15.0,21.9,0.00,Snow,Light Snow,330,2013-03-08 12:44:00
7:54 AM,28.9,26.1,89,30.07,2.5,NW,12.7,21.9,0.00,Snow,Light Snow,320,2013-03-08 12:54:00
8:10 AM,28.4,26.6,93,30.05,1.2,NNW,10.4,25.3,0.00,Snow,Light Snow,330,2013-03-08 13:10:00
8:54 AM,28.9,27.0,92,30.07,1.0,NNW,12.7,20.7,0.00,Snow,Light Snow,330,2013-03-08 13:54:00
9:12 AM,28.4,26.6,93,30.05,0.5,NNW,12.7,21.9,0.00,Fog-Snow,Snow,330,2013-03-08 14:12:00
9:23 AM,30.2,26.6,86,30.05,1.0,NNW,12.7,21.9,0.00,Snow,Light Snow,330,2013-03-08 14:23:00
9:31 AM,30.2,26.6,86,30.05,0.8,NNW,11.5,24.2,0.00,Snow,Light Snow,330,2013-03-08 14:31:00
9:54 AM,30.0,28.0,92,30.08,0.8,NNW,11.5,21.9,0.00,Snow,Light Snow,330,2013-03-08 14:54:00
10:04 AM,30.2,28.4,93,30.06,1.0,NNW,10.4,19.6,0.00,Snow,Light Snow,330,2013-03-08 15:04:00
10:16 AM,30.2,28.4,93,30.06,0.8,NNW,13.8,23.0,0.00,Snow,Light Snow,330,2013-03-08 15:16:00
10:44 AM,30.2,28.4,93,30.07,0.8,NNW,11.5,21.9,0.00,Snow,Light Snow,330,2013-03-08 15:44:00
10:54 AM,30.9,28.0,89,30.09,0.8,NW,11.5,18.4,0.00,Snow,Light Snow,320,2013-03-08 15:54:00
11:07 AM,30.2,28.4,93,30.07,1.0,NNW,16.1,24.2,0.00,Snow,Light Snow,330,2013-03-08 16:07:00
11:18 AM,30.2,28.4,93,30.07,0.8,NNW,15.0,23.0,0.01,Snow,Light Snow,330,2013-03-08 16:18:00
11:28 AM,30.2,28.4,93,30.07,1.0,NW,10.4,21.9,0.01,Snow,Light Snow,320,2013-03-08 16:28:00
11:32 AM,30.2,28.4,93,30.07,0.8,NW,11.5,21.9,0.01,Snow,Light Snow,320,2013-03-08 16:32:00
12:14 PM,32.0,30.2,93,30.07,1.0,NW,12.7,20.7,0.01,Snow,Light Snow,320,2013-03-08 17:14:00
12:31 PM,33.8,28.4,81,30.07,2.0,NNW,8.1,21.9,0.02,Snow,Light Snow,330,2013-03-08 17:31:00
12:44 PM,33.8,28.4,81,30.06,4.0,NNW,16.1,23.0,0.02,Snow,Light Snow,330,2013-03-08 17:44:00
12:54 PM,34.0,28.9,82,30.08,5.0,NNW,11.5,19.6,0.03,Snow,Light Snow,330,2013-03-08 17:54:00
1:37 PM,35.6,28.4,75,30.05,9.0,NNW,6.9,20.7,0.08,Snow,Light Snow,340,2013-03-08 18:37:00
1:54 PM,37.0,28.9,73,30.06,10.0,NNW,10.4,21.9,0.11,,Overcast,330,2013-03-08 18:54:00
2:54 PM,39.9,28.0,63,30.08,10.0,North,12.7,19.6,0.11,,Overcast,350,2013-03-08 19:54:00
3:54 PM,41.0,28.9,62,30.09,10.0,NNW,10.4,18.4,0.01,,Overcast,340,2013-03-08 20:54:00
4:54 PM,41.0,28.0,60,30.12,10.0,NNW,13.8,24.2,N/A,,Overcast,340,2013-03-08 21:54:00
5:54 PM,41.0,28.0,60,30.14,10.0,NNW,11.5,23.0,N/A,,Overcast,340,2013-03-08 22:54:00
6:54 PM,39.0,27.0,62,30.17,10.0,NNW,10.4,21.9,N/A,,Scattered Clouds,330,2013-03-08 23:54:00
7:54 PM,37.9,25.0,60,30.19,10.0,NNW,10.4,18.4,N/A,,Clear,340,2013-03-09 00:54:00
8:54 PM,37.0,25.0,62,30.22,10.0,NNW,9.2,-,N/A,,Clear,340,2013-03-09 01:54:00
9:54 PM,37.0,24.1,59,30.22,10.0,NNW,10.4,19.6,N/A,,Clear,340,2013-03-09 02:54:00
10:54 PM,35.1,23.0,61,30.23,10.0,Variable,5.8,-,N/A,,Clear,0,2013-03-09 03:54:00
11:54 PM,34.0,21.9,61,30.24,10.0,Variable,6.9,-,N/A,,Clear,0,2013-03-09 04:54:00